Weather History for KSMQ - January, 2015

Change the Weather History Date:

Sunday, January 4, 2015

  Actual Average Record
Temperature  
Mean Temperature 44 °F -  
Max Temperature 51 °F 37 °F 68 °F (1950)
Min Temperature 36 °F 19 °F -7 °F (1981)
Degree Days  
Heating Degree Days 22    
Moisture  
Dew Point 41 °F    
Average Humidity 92    
Maximum Humidity 97    
Minimum Humidity 48    
Precipitation  
Precipitation 0.20 in - - ()
Sea Level Pressure  
Sea Level Pressure 29.82 in    
Wind  
Wind Speed 3 mph (SW)    
Max Wind Speed 15 mph    
Max Gust Speed 28 mph    
Visibility 3 miles    
Events Fog , Rain    
Averages and records for this station are not official NWS values.
T = Trace of Precipitation, MM = Missing Value Source: NWS Daily Summary

Daily Weather History Graph

Daily Weather History Graph

Search for Another Location

Airport or City:

Trip Planner

Search our weather history database for the weather conditions in past years. The results will help you decide how hot, cold, wet, or windy it might be!

Date:

Astronomy

Jan. 04, 2015 Rise Set
Actual Time 7:22 AM EST 4:44 PM EST
Civil Twilight 6:51 AM EST 5:15 PM EST
Nautical Twilight 6:17 AM EST 5:49 PM EST
Astronomical Twilight 5:44 AM EST 6:22 PM EST
Moon 4:43 PM EST (1/4) 6:32 AM EST (1/4)
Length of Visible Light 10h 23m
Length of Day
9h 22m
Full, 100% of the Moon is Illuminated
Jan 4
Full
Jan 4
Full
Jan 13
Last Quarter
Jan 20
New
Jan 26
First Quarter

Hourly Weather History & Observations

Time (EST) Temp. Windchill Dew Point Humidity Pressure Visibility Wind Dir Wind Speed Gust Speed Precip Events Conditions
12:07 AM 37.4 °F 34.9 °F 35.6 °F 93% 30.05 in 2.0 mi NNW 3.5 mph - N/A Rain Rain
12:21 AM 37.0 °F 34.5 °F 35.1 °F 93% 30.04 in 5.0 mi NW 3.5 mph - 0.04 in Rain Light Rain
12:53 AM 37.9 °F - 36.0 °F 93% 30.03 in 3.0 mi Calm Calm - 0.05 in Rain Light Rain
1:39 AM 37.9 °F - 36.0 °F 93% 30.00 in 2.0 mi Calm Calm - 0.02 in Rain Light Rain
1:53 AM 37.0 °F 32.4 °F 35.1 °F 93% 30.01 in 2.0 mi NW 5.8 mph - 0.03 in Rain Light Rain
2:03 AM 37.9 °F 35.5 °F 36.0 °F 93% 30.00 in 4.0 mi NNW 3.5 mph - 0.00 in   Overcast
2:53 AM 37.9 °F - 36.0 °F 93% 29.99 in 4.0 mi Calm Calm - 0.00 in   Overcast
3:12 AM 37.9 °F - 36.0 °F 93% 29.97 in 2.0 mi Calm Calm - N/A   Overcast
3:22 AM 37.0 °F - 36.0 °F 96% 29.98 in 1.2 mi Calm Calm - N/A   Overcast
3:33 AM 37.0 °F - 35.1 °F 93% 29.97 in 1.0 mi Calm Calm - N/A   Overcast
3:53 AM 36.0 °F - 35.1 °F 97% 29.97 in 0.8 mi Calm Calm - N/A   Overcast
4:53 AM 37.0 °F - 35.1 °F 93% 29.96 in 0.5 mi Calm Calm - N/A Fog Fog
5:05 AM 37.0 °F 34.5 °F 35.1 °F 93% 29.95 in 0.5 mi South 3.5 mph - 0.00 in Fog , Rain Light Rain
5:53 AM 37.0 °F 34.5 °F 36.0 °F 96% 29.96 in 0.5 mi South 3.5 mph - 0.01 in Fog , Rain Light Rain
6:07 AM 37.0 °F 34.5 °F 36.0 °F 96% 29.94 in 0.5 mi South 3.5 mph - 0.00 in Fog , Rain Light Rain
6:22 AM 37.0 °F 32.4 °F 36.0 °F 96% 29.94 in 0.8 mi South 5.8 mph - 0.01 in Rain Light Rain
6:29 AM 37.9 °F 33.5 °F 36.0 °F 93% 29.93 in 1.2 mi South 5.8 mph - 0.03 in Rain Rain
6:35 AM 37.9 °F 34.4 °F 36.0 °F 93% 29.94 in 3.0 mi South 4.6 mph - 0.04 in Rain Light Rain
6:53 AM 39.0 °F 36.8 °F 37.0 °F 93% 29.95 in 4.0 mi South 3.5 mph - 0.06 in Rain Light Rain
7:53 AM 39.0 °F 35.7 °F 37.0 °F 93% 29.94 in 6.0 mi South 4.6 mph - 0.01 in   Mostly Cloudy
8:51 AM 41.0 °F 39.0 °F 39.2 °F 93% 29.91 in 7.0 mi South 3.5 mph - 0.02 in Rain Light Rain
8:52 AM 41.0 °F 39.0 °F 39.9 °F 96% 29.91 in 8.0 mi South 3.5 mph - 0.02 in Rain Light Rain
9:17 AM 42.1 °F - 39.9 °F 92% 29.89 in 6.0 mi Calm Calm - 0.00 in Rain Light Rain
9:53 AM 43.0 °F 41.3 °F 41.0 °F 93% 29.84 in 3.0 mi Variable 3.5 mph - 0.00 in   Overcast
10:53 AM 45.0 °F 42.6 °F 43.0 °F 93% 29.82 in 5.0 mi Variable 4.6 mph - N/A   Overcast
11:23 AM 46.0 °F 43.9 °F 44.1 °F 93% 29.83 in 2.5 mi West 4.6 mph - N/A   Overcast
11:26 AM 46.0 °F - 44.1 °F 93% 29.82 in 3.0 mi Calm Calm - N/A   Overcast
11:38 AM 46.0 °F 44.8 °F 44.1 °F 93% 29.80 in 2.0 mi Variable 3.5 mph - N/A   Overcast
11:53 AM 46.0 °F 44.8 °F 44.1 °F 93% 29.77 in 0.8 mi South 3.5 mph - N/A   Overcast
12:39 PM 46.9 °F - 45.0 °F 93% 29.72 in 0.2 mi ESE 5.8 mph - N/A Fog Fog
12:51 PM 46.4 °F - 44.6 °F 93% 29.78 in 0.8 mi Calm Calm - N/A   Overcast
12:53 PM 46.9 °F - 45.0 °F 93% 29.78 in 1.0 mi Calm Calm - N/A   Overcast
1:20 PM 48.0 °F - 46.0 °F 93% 29.75 in 2.5 mi Calm Calm - N/A   Overcast
1:27 PM 48.0 °F - 46.0 °F 93% 29.75 in 5.0 mi Variable 3.5 mph - N/A   Overcast
1:44 PM 48.0 °F - 46.0 °F 93% 29.75 in 6.0 mi SW 3.5 mph - N/A   Overcast
1:53 PM 48.0 °F - 46.9 °F 96% 29.75 in 6.0 mi SSW 3.5 mph - N/A   Overcast
2:38 PM 48.9 °F - 46.9 °F 93% 29.72 in 5.0 mi Calm Calm - N/A   Overcast
2:53 PM 50.0 °F - 46.9 °F 89% 29.73 in 5.0 mi Calm Calm - N/A   Mostly Cloudy
3:07 PM 50.0 °F - 48.0 °F 93% 29.72 in 6.0 mi Variable 3.5 mph - N/A   Partly Cloudy
3:53 PM 48.9 °F - 46.0 °F 90% 29.71 in 3.0 mi North - - N/A   Clear
4:06 PM 48.0 °F - 46.0 °F 93% 29.69 in 1.5 mi Calm Calm - N/A   Clear
4:09 PM 46.9 °F - 46.0 °F 97% 29.68 in 0.5 mi ESE 3.5 mph - N/A Fog Fog
4:17 PM 46.9 °F - 44.1 °F 90% 29.68 in 0.2 mi North - - N/A Fog Fog
4:23 PM 46.9 °F - 45.0 °F 93% 29.68 in 0.2 mi Calm Calm - N/A Fog Fog
4:40 PM 46.0 °F - 45.0 °F 96% 29.68 in 0.2 mi Calm Calm - N/A Fog Fog
4:49 PM 46.4 °F - 44.6 °F 93% 29.68 in 0.5 mi Calm Calm - N/A Fog Fog
4:53 PM 45.0 °F - 44.1 °F 97% 29.68 in 0.5 mi Calm Calm - N/A Fog Fog
5:10 PM 45.0 °F - 44.1 °F 97% 29.66 in 0.5 mi Calm Calm - N/A Fog Fog
5:41 PM 44.1 °F 42.5 °F 42.1 °F 93% 29.67 in 0.2 mi WNW 3.5 mph - N/A Fog Fog
5:53 PM 44.1 °F 42.5 °F 42.1 °F 93% 29.68 in 0.2 mi NW 3.5 mph - N/A Fog Fog
6:06 PM 44.1 °F 42.5 °F 42.1 °F 93% 29.68 in 0.5 mi NNW 3.5 mph - N/A Fog Fog
6:23 PM 45.0 °F - 43.0 °F 93% 29.69 in 1.5 mi Calm Calm - N/A   Overcast
6:31 PM 45.0 °F - 44.1 °F 97% 29.69 in 2.5 mi Calm Calm - N/A   Overcast
6:53 PM 46.0 °F - 44.1 °F 93% 29.68 in 5.0 mi Calm Calm - N/A   Overcast
7:28 PM 48.9 °F - 46.9 °F 93% 29.69 in 8.0 mi Variable 3.5 mph - N/A   Overcast
7:53 PM 48.9 °F - 46.9 °F 93% 29.70 in 7.0 mi Calm Calm - 0.00 in Rain Light Rain
8:53 PM 51.1 °F - 45.0 °F 80% 29.74 in 10.0 mi WNW 9.2 mph 18.4 mph 0.01 in Rain Light Rain
9:53 PM 51.1 °F - 43.0 °F 74% 29.76 in 10.0 mi WNW 10.4 mph 19.6 mph 0.01 in   Overcast
10:53 PM 50.0 °F - 34.0 °F 54% 29.78 in 10.0 mi West 12.7 mph 27.6 mph N/A   Overcast
11:53 PM 48.0 °F - 28.9 °F 48% 29.82 in 10.0 mi WNW 15.0 mph 26.5 mph N/A   Clear